NOAA 16 DEB

Satellite information

Favourite Embed

Satellite Type and Status

DEBRISIN ORBIT

Key statistics

Satellite NOAA 16 DEB at a glance.

Uptime

9215

Days in orbit

Revolutions

≈ 14.3

Per day

Orbit

SSO

Sun Synchronous Orbit

Inclination

98.6

Latest

Satellite identification and parameters

Extended collection of information and parameters for NOAA 16 DEB.

Object identification

Identified? True

Debris? True

Object name: NOAA 16 DEB

International designator: 2000-055PV

Object number (NORAD): 41715

Object ID (CCSDS): 41715

Country: UNITED STATES OF AMERICA (US)

Current information (Y/N): Y

RCS size: SMALL

Orbital parameters

Period: 100.62 minutes

Inclination: 98.6493 deg

SMA: 7166.099 km

Apoapsis: 796.757 km

Periapsis: 779.171 km

RAAN: 29.2765 deg

Eccentricy: 0.00122702

Argument of periapsis: 158.4371 deg

Mean anomaly: 201.7331 deg

Mean motion: 14.31128307 rev/day

Mean motion (dot): 0.00008779 rev/day2

B* drag term: 0.0033385553 1/REarth

Two-line elements (TLE)

Creation date: Dec. 14, 2025, 3:07 a.m.

Reference frame: TEME

Reference center: EARTH

Epoch: Dec. 13, 2025, 8:09 a.m. UTC

TLE line 0: 0 NOAA 16 DEB

TLE line 1: 1 41715U 00055PV 25347.34013743 .00008779 00000-0 33386-2 0 9990

TLE line 2: 2 41715 98.6493 29.2765 0012270 158.4371 201.7331 14.31128307499954

Live tracking on map

Real-time ground track for satellite NOAA 16 DEB.

In-orbit conjunctions

A list of the most updated potential collisions computed for object NOAA 16 DEB.

Target Orbit TCA Probability of collision Miss distance Type
SL-16 R/B SSO 2025-08-11 10:15:45 0.000117383 516.0 (m) ROCKET BODY
FALCONSAT SSO 2025-06-14 13:15:49 0.0001296902 936.0 (m) PAYLOAD
METEOR 2-5 DEB LEO 2024-08-28 03:13:52 0.000123117 142.0 (m) DEBRIS

Associated space launch

The NOAA K, L and M POES satellites begin the fifth generation of improved environmental monitoring in support of NOAA missions. The instrument payload has significant improvements and additions/deletions. The instrument changes have effected the spacecraft subsystems and data formats.

NOAA 16 DEB was lifted into orbit during the mission ‘Titan II SLV | NOAA 16’, on board a Titan II SLV space rocket.

The launch took place on Sept. 21, 2000, 10:22 a.m. from Space Launch Complex 4W.

For more information about the launch, click the button.

Launch to space Titan II SLV | NOAA 16
Titan II SLV | NOAA 16

Agency: N/A

Status: Launch Successful

Launch date: Sept. 21, 2000, 10:22 a.m. UTC

Rocket: Titan II SLV

Launch pad: Space Launch Complex 4W

Location: Vandenberg SFB, CA, USA

...

Latest news about this satellite

There are no fresh news available about this satellite. Check back as we update our databases every day.


Newsletter sign-up

Weekly statistics, charts and insights to help you stay on top of the space industry.